owner,sensor,date,latitude,longitude,vertical_datum,sea_water_temperature,qcFlag
Chevron,ioos:station:wmo:42402:2,2023-02-01T00:05:00Z,26.9329,-90.5201,27.9,21.9,11111222
Chevron,ioos:station:wmo:42402:2,2023-02-01T00:25:00Z,26.9329,-90.5201,27.9,21.9,11111222
Chevron,ioos:station:wmo:42402:2,2023-02-01T00:45:00Z,26.9329,-90.5201,27.9,21.9,11111222
Chevron,ioos:station:wmo:42402:2,2023-02-01T01:05:00Z,26.9329,-90.5201,27.9,21.9,11111222
Chevron,ioos:station:wmo:42402:2,2023-02-01T01:25:00Z,26.9329,-90.5201,27.9,21.9,11111222
Chevron,ioos:station:wmo:42402:2,2023-02-01T01:44:00Z,26.9329,-90.5201,27.9,21.9,11111222
Chevron,ioos:station:wmo:42402:2,2023-02-01T02:03:00Z,26.9329,-90.5201,27.9,21.9,11111222
Chevron,ioos:station:wmo:42402:2,2023-02-01T02:23:00Z,26.9329,-90.5201,27.9,21.9,11111222
Chevron,ioos:station:wmo:42402:2,2023-02-01T02:43:00Z,26.9329,-90.5201,27.9,21.9,11111222
Chevron,ioos:station:wmo:42402:2,2023-02-01T03:03:00Z,26.9329,-90.5201,27.9,21.9,11111222
Chevron,ioos:station:wmo:42402:2,2023-02-01T03:23:00Z,26.9329,-90.5201,27.9,21.9,11111222
Chevron,ioos:station:wmo:42402:2,2023-02-01T03:43:00Z,26.9329,-90.5201,27.9,21.9,11111222
Chevron,ioos:station:wmo:42402:2,2023-02-01T04:03:00Z,26.9329,-90.5201,27.9,21.9,11111222
Chevron,ioos:station:wmo:42402:2,2023-02-01T04:23:00Z,26.9329,-90.5201,27.9,21.9,11111222
Chevron,ioos:station:wmo:42402:2,2023-02-01T04:43:00Z,26.9329,-90.5201,27.9,21.9,11111222
Chevron,ioos:station:wmo:42402:2,2023-02-01T05:02:00Z,26.9329,-90.5201,27.9,21.9,11111222
Chevron,ioos:station:wmo:42402:2,2023-02-01T05:22:00Z,26.9329,-90.5201,27.9,21.9,11111222
Chevron,ioos:station:wmo:42402:2,2023-02-01T05:42:00Z,26.9329,-90.5201,27.9,21.8,11111222
Chevron,ioos:station:wmo:42402:2,2023-02-01T06:02:00Z,26.9329,-90.5201,27.9,21.8,11111222
Chevron,ioos:station:wmo:42402:2,2023-02-01T06:22:00Z,26.9329,-90.5201,27.9,21.8,11111222
Chevron,ioos:station:wmo:42402:2,2023-02-01T06:42:00Z,26.9329,-90.5201,27.9,21.8,11111222
Chevron,ioos:station:wmo:42402:2,2023-02-01T07:02:00Z,26.9329,-90.5201,27.9,21.8,11111222
Chevron,ioos:station:wmo:42402:2,2023-02-01T07:22:00Z,26.9329,-90.5201,27.9,21.8,11111222
Chevron,ioos:station:wmo:42402:2,2023-02-01T07:42:00Z,26.9329,-90.5201,27.9,21.8,11111222
Chevron,ioos:station:wmo:42402:2,2023-02-01T08:02:00Z,26.9329,-90.5201,27.9,21.8,11111222
Chevron,ioos:station:wmo:42402:2,2023-02-01T08:22:00Z,26.9329,-90.5201,27.9,21.8,11111222
Chevron,ioos:station:wmo:42402:2,2023-02-01T08:41:00Z,26.9329,-90.5201,27.9,21.8,11111222
Chevron,ioos:station:wmo:42402:2,2023-02-01T09:01:00Z,26.9329,-90.5201,27.9,21.8,11111222
Chevron,ioos:station:wmo:42402:2,2023-02-01T09:21:00Z,26.9329,-90.5201,27.9,21.8,11111222
Chevron,ioos:station:wmo:42402:2,2023-02-01T09:41:00Z,26.9329,-90.5201,27.9,21.8,11111222
Chevron,ioos:station:wmo:42402:2,2023-02-01T10:01:00Z,26.9329,-90.5201,27.9,21.8,11111222
Chevron,ioos:station:wmo:42402:2,2023-02-01T10:21:00Z,26.9329,-90.5201,27.9,21.8,11111222
Chevron,ioos:station:wmo:42402:2,2023-02-01T10:41:00Z,26.9329,-90.5201,27.9,21.8,11111222
Chevron,ioos:station:wmo:42402:2,2023-02-01T11:01:00Z,26.9329,-90.5201,27.9,21.8,11111222
Chevron,ioos:station:wmo:42402:2,2023-02-01T11:21:00Z,26.9329,-90.5201,27.9,21.8,11111222
Chevron,ioos:station:wmo:42402:2,2023-02-01T11:41:00Z,26.9329,-90.5201,27.9,21.8,11111222
Chevron,ioos:station:wmo:42402:2,2023-02-01T12:01:00Z,26.9329,-90.5201,27.9,21.8,11111222
Chevron,ioos:station:wmo:42402:2,2023-02-01T12:21:00Z,26.9329,-90.5201,27.9,21.7,11111222
Chevron,ioos:station:wmo:42402:2,2023-02-01T12:41:00Z,26.9329,-90.5201,27.9,21.7,11111222
Chevron,ioos:station:wmo:42402:2,2023-02-01T13:01:00Z,26.9329,-90.5201,27.9,21.7,11111222
Chevron,ioos:station:wmo:42402:2,2023-02-01T13:21:00Z,26.9329,-90.5201,27.9,21.8,11111222
Chevron,ioos:station:wmo:42402:2,2023-02-01T13:41:00Z,26.9329,-90.5201,27.9,21.8,11111222
Chevron,ioos:station:wmo:42402:2,2023-02-01T14:01:00Z,26.9329,-90.5201,27.9,21.7,11111222
Chevron,ioos:station:wmo:42402:2,2023-02-01T14:21:00Z,26.9329,-90.5201,27.9,21.8,11111222
Chevron,ioos:station:wmo:42402:2,2023-02-01T14:41:00Z,26.9329,-90.5201,27.9,21.8,11111222
Chevron,ioos:station:wmo:42402:2,2023-02-01T15:01:00Z,26.9329,-90.5201,27.9,21.8,11111222
Chevron,ioos:station:wmo:42402:2,2023-02-01T15:21:00Z,26.9329,-90.5201,27.9,21.8,11111222
Chevron,ioos:station:wmo:42402:2,2023-02-01T15:41:00Z,26.9329,-90.5201,27.9,21.8,11111222
Chevron,ioos:station:wmo:42402:2,2023-02-01T16:01:00Z,26.9329,-90.5201,27.9,21.8,11111222
Chevron,ioos:station:wmo:42402:2,2023-02-01T16:21:00Z,26.9329,-90.5201,27.9,21.8,11111222
Chevron,ioos:station:wmo:42402:2,2023-02-01T16:41:00Z,26.9329,-90.5201,27.9,21.8,11111222
Chevron,ioos:station:wmo:42402:2,2023-02-01T17:01:00Z,26.9329,-90.5201,27.9,21.8,11111222
Chevron,ioos:station:wmo:42402:2,2023-02-01T17:21:00Z,26.9329,-90.5201,27.9,21.8,11111222
Chevron,ioos:station:wmo:42402:2,2023-02-01T17:41:00Z,26.9329,-90.5201,27.9,21.7,11111222
Chevron,ioos:station:wmo:42402:2,2023-02-01T18:01:00Z,26.9329,-90.5201,27.9,21.8,11111222
Chevron,ioos:station:wmo:42402:2,2023-02-01T18:21:00Z,26.9329,-90.5201,27.9,21.8,11111222
Chevron,ioos:station:wmo:42402:2,2023-02-01T18:41:00Z,26.9329,-90.5201,27.9,21.8,11111222
Chevron,ioos:station:wmo:42402:2,2023-02-01T19:01:00Z,26.9329,-90.5201,27.9,21.8,11111222
Chevron,ioos:station:wmo:42402:2,2023-02-01T19:20:00Z,26.9329,-90.5201,27.9,21.8,11111222
Chevron,ioos:station:wmo:42402:2,2023-02-01T19:40:00Z,26.9329,-90.5201,27.9,21.8,11111222
Chevron,ioos:station:wmo:42402:2,2023-02-01T20:00:00Z,26.9329,-90.5201,27.9,21.8,11111222
Chevron,ioos:station:wmo:42402:2,2023-02-01T20:19:00Z,26.9329,-90.5201,27.9,21.8,11111222
Chevron,ioos:station:wmo:42402:2,2023-02-01T20:39:00Z,26.9329,-90.5201,27.9,21.8,11111222
Chevron,ioos:station:wmo:42402:2,2023-02-01T20:59:00Z,26.9329,-90.5201,27.9,21.8,11111222
Chevron,ioos:station:wmo:42402:2,2023-02-01T21:19:00Z,26.9329,-90.5201,27.9,21.8,11111222
Chevron,ioos:station:wmo:42402:2,2023-02-01T21:39:00Z,26.9329,-90.5201,27.9,21.8,11111222
Chevron,ioos:station:wmo:42402:2,2023-02-01T21:59:00Z,26.9329,-90.5201,27.9,21.8,11111222
Chevron,ioos:station:wmo:42402:2,2023-02-01T22:19:00Z,26.9329,-90.5201,27.9,21.8,11111222
Chevron,ioos:station:wmo:42402:2,2023-02-01T22:39:00Z,26.9329,-90.5201,27.9,21.8,11111222
Chevron,ioos:station:wmo:42402:2,2023-02-01T22:59:00Z,26.9329,-90.5201,27.9,21.8,11111222
Chevron,ioos:station:wmo:42402:2,2023-02-01T23:18:00Z,26.9329,-90.5201,27.9,21.8,11111222
Chevron,ioos:station:wmo:42402:2,2023-02-01T23:37:00Z,26.9329,-90.5201,27.9,21.8,11111222
Chevron,ioos:station:wmo:42402:2,2023-02-01T23:57:00Z,26.9329,-90.5201,27.9,21.7,11111222
Chevron,ioos:station:wmo:42402:2,2023-02-02T00:16:00Z,26.9329,-90.5201,27.9,21.7,11111222
Chevron,ioos:station:wmo:42402:2,2023-02-02T00:36:00Z,26.9329,-90.5201,27.9,21.7,11111222
Chevron,ioos:station:wmo:42402:2,2023-02-02T00:56:00Z,26.9329,-90.5201,27.9,21.7,11111222
Chevron,ioos:station:wmo:42402:2,2023-02-02T01:16:00Z,26.9329,-90.5201,27.9,21.7,11111222
Chevron,ioos:station:wmo:42402:2,2023-02-02T01:36:00Z,26.9329,-90.5201,27.9,21.7,11111222
Chevron,ioos:station:wmo:42402:2,2023-02-02T01:56:00Z,26.9329,-90.5201,27.9,21.7,11111222
Chevron,ioos:station:wmo:42402:2,2023-02-02T02:16:00Z,26.9329,-90.5201,27.9,21.8,11111222
Chevron,ioos:station:wmo:42402:2,2023-02-02T02:36:00Z,26.9329,-90.5201,27.9,21.8,11111222
Chevron,ioos:station:wmo:42402:2,2023-02-02T02:55:00Z,26.9329,-90.5201,27.9,21.8,11111222
Chevron,ioos:station:wmo:42402:2,2023-02-02T03:15:00Z,26.9329,-90.5201,27.9,21.8,11111222
Chevron,ioos:station:wmo:42402:2,2023-02-02T03:35:00Z,26.9329,-90.5201,27.9,21.8,11111222
Chevron,ioos:station:wmo:42402:2,2023-02-02T03:55:00Z,26.9329,-90.5201,27.9,21.8,11111222
Chevron,ioos:station:wmo:42402:2,2023-02-02T04:14:00Z,26.9329,-90.5201,27.9,21.8,11111222
Chevron,ioos:station:wmo:42402:2,2023-02-02T04:34:00Z,26.9329,-90.5201,27.9,21.8,11111222
Chevron,ioos:station:wmo:42402:2,2023-02-02T04:54:00Z,26.9329,-90.5201,27.9,21.8,11111222
Chevron,ioos:station:wmo:42402:2,2023-02-02T05:14:00Z,26.9329,-90.5201,27.9,21.8,11111222
Chevron,ioos:station:wmo:42402:2,2023-02-02T05:34:00Z,26.9329,-90.5201,27.9,21.8,11111222
Chevron,ioos:station:wmo:42402:2,2023-02-02T05:54:00Z,26.9329,-90.5201,27.9,21.7,11111222
Chevron,ioos:station:wmo:42402:2,2023-02-02T06:14:00Z,26.9329,-90.5201,27.9,21.7,11111222
Chevron,ioos:station:wmo:42402:2,2023-02-02T06:34:00Z,26.9329,-90.5201,27.9,21.7,11111222
Chevron,ioos:station:wmo:42402:2,2023-02-02T06:54:00Z,26.9329,-90.5201,27.9,21.7,11111222
Chevron,ioos:station:wmo:42402:2,2023-02-02T07:14:00Z,26.9329,-90.5201,27.9,21.8,11111222
Chevron,ioos:station:wmo:42402:2,2023-02-02T07:34:00Z,26.9329,-90.5201,27.9,21.7,11111222
Chevron,ioos:station:wmo:42402:2,2023-02-02T07:54:00Z,26.9329,-90.5201,27.9,21.8,11111222
Chevron,ioos:station:wmo:42402:2,2023-02-02T08:14:00Z,26.9329,-90.5201,27.9,21.8,11111222
Chevron,ioos:station:wmo:42402:2,2023-02-02T08:34:00Z,26.9329,-90.5201,27.9,21.8,11111222
Chevron,ioos:station:wmo:42402:2,2023-02-02T08:54:00Z,26.9329,-90.5201,27.9,21.9,11111222
Chevron,ioos:station:wmo:42402:2,2023-02-02T09:14:00Z,26.9329,-90.5201,27.9,22.3,11111222
Chevron,ioos:station:wmo:42402:2,2023-02-02T09:34:00Z,26.9329,-90.5201,27.9,22.4,11111222
Chevron,ioos:station:wmo:42402:2,2023-02-02T09:54:00Z,26.9329,-90.5201,27.9,22.4,11111222
Chevron,ioos:station:wmo:42402:2,2023-02-02T10:14:00Z,26.9329,-90.5201,27.9,22.4,11111222
Chevron,ioos:station:wmo:42402:2,2023-02-02T10:34:00Z,26.9329,-90.5201,27.9,22.4,11111222
Chevron,ioos:station:wmo:42402:2,2023-02-02T10:54:00Z,26.9329,-90.5201,27.9,22.4,11111222
Chevron,ioos:station:wmo:42402:2,2023-02-02T11:14:00Z,26.9329,-90.5201,27.9,22.4,11111222
Chevron,ioos:station:wmo:42402:2,2023-02-02T11:34:00Z,26.9329,-90.5201,27.9,22.4,11111222
Chevron,ioos:station:wmo:42402:2,2023-02-02T11:54:00Z,26.9329,-90.5201,27.9,22.4,11111222
Chevron,ioos:station:wmo:42402:2,2023-02-02T12:14:00Z,26.9329,-90.5201,27.9,22.4,11111222
Chevron,ioos:station:wmo:42402:2,2023-02-02T12:34:00Z,26.9329,-90.5201,27.9,22.4,11111222
Chevron,ioos:station:wmo:42402:2,2023-02-02T12:54:00Z,26.9329,-90.5201,27.9,22.4,11111222
Chevron,ioos:station:wmo:42402:2,2023-02-02T13:14:00Z,26.9329,-90.5201,27.9,22.4,11111222
Chevron,ioos:station:wmo:42402:2,2023-02-02T13:34:00Z,26.9329,-90.5201,27.9,22.4,11111222
Chevron,ioos:station:wmo:42402:2,2023-02-02T13:54:00Z,26.9329,-90.5201,27.9,22.4,11111222
Chevron,ioos:station:wmo:42402:2,2023-02-02T14:14:00Z,26.9329,-90.5201,27.9,22.4,11111222
Chevron,ioos:station:wmo:42402:2,2023-02-02T14:34:00Z,26.9329,-90.5201,27.9,22.4,11111222
Chevron,ioos:station:wmo:42402:2,2023-02-02T14:54:00Z,26.9329,-90.5201,27.9,22.4,11111222
Chevron,ioos:station:wmo:42402:2,2023-02-02T15:14:00Z,26.9329,-90.5201,27.9,22.4,11111222
Chevron,ioos:station:wmo:42402:2,2023-02-02T15:33:00Z,26.9329,-90.5201,27.9,22.4,11111222
Chevron,ioos:station:wmo:42402:2,2023-02-02T15:53:00Z,26.9329,-90.5201,27.9,22.4,11111222
Chevron,ioos:station:wmo:42402:2,2023-02-02T16:13:00Z,26.9329,-90.5201,27.9,22.4,11111222
Chevron,ioos:station:wmo:42402:2,2023-02-02T16:32:00Z,26.9329,-90.5201,27.9,22.4,11111222
Chevron,ioos:station:wmo:42402:2,2023-02-02T16:52:00Z,26.9329,-90.5201,27.9,22.6,11111222
Chevron,ioos:station:wmo:42402:2,2023-02-02T17:12:00Z,26.9329,-90.5201,27.9,22.6,11111222
Chevron,ioos:station:wmo:42402:2,2023-02-02T17:32:00Z,26.9329,-90.5201,27.9,22.6,11111222
Chevron,ioos:station:wmo:42402:2,2023-02-02T17:52:00Z,26.9329,-90.5201,27.9,22.5,11111222
Chevron,ioos:station:wmo:42402:2,2023-02-02T18:12:00Z,26.9329,-90.5201,27.9,22.5,11111222
Chevron,ioos:station:wmo:42402:2,2023-02-02T18:32:00Z,26.9329,-90.5201,27.9,22.5,11111222
Chevron,ioos:station:wmo:42402:2,2023-02-02T18:52:00Z,26.9329,-90.5201,27.9,22.5,11111222
Chevron,ioos:station:wmo:42402:2,2023-02-02T19:12:00Z,26.9329,-90.5201,27.9,22.5,11111222
Chevron,ioos:station:wmo:42402:2,2023-02-02T19:32:00Z,26.9329,-90.5201,27.9,22.4,11111222
Chevron,ioos:station:wmo:42402:2,2023-02-02T19:52:00Z,26.9329,-90.5201,27.9,22.4,11111222
Chevron,ioos:station:wmo:42402:2,2023-02-02T20:12:00Z,26.9329,-90.5201,27.9,22.5,11111222
Chevron,ioos:station:wmo:42402:2,2023-02-02T20:32:00Z,26.9329,-90.5201,27.9,22.4,11111222
Chevron,ioos:station:wmo:42402:2,2023-02-02T20:52:00Z,26.9329,-90.5201,27.9,22.4,11111222
Chevron,ioos:station:wmo:42402:2,2023-02-02T21:12:00Z,26.9329,-90.5201,27.9,22.4,11111222
Chevron,ioos:station:wmo:42402:2,2023-02-02T21:32:00Z,26.9329,-90.5201,27.9,22.4,11111222
Chevron,ioos:station:wmo:42402:2,2023-02-02T21:51:00Z,26.9329,-90.5201,27.9,22.4,11111222
Chevron,ioos:station:wmo:42402:2,2023-02-02T22:10:00Z,26.9329,-90.5201,27.9,22.4,11111222
Chevron,ioos:station:wmo:42402:2,2023-02-02T22:30:00Z,26.9329,-90.5201,27.9,22.4,11111222
Chevron,ioos:station:wmo:42402:2,2023-02-02T22:50:00Z,26.9329,-90.5201,27.9,22.4,11111222
Chevron,ioos:station:wmo:42402:2,2023-02-02T23:10:00Z,26.9329,-90.5201,27.9,22.4,11111222
Chevron,ioos:station:wmo:42402:2,2023-02-02T23:30:00Z,26.9329,-90.5201,27.9,22.4,11111222
Chevron,ioos:station:wmo:42402:2,2023-02-02T23:50:00Z,26.9329,-90.5201,27.9,22.4,11111222
Chevron,ioos:station:wmo:42402:2,2023-02-03T00:10:00Z,26.9329,-90.5201,27.9,22.4,11111222
Chevron,ioos:station:wmo:42402:2,2023-02-03T00:30:00Z,26.9329,-90.5201,27.9,22.4,11111222
Chevron,ioos:station:wmo:42402:2,2023-02-03T00:50:00Z,26.9329,-90.5201,27.9,22.4,11111222
Chevron,ioos:station:wmo:42402:2,2023-02-03T01:09:00Z,26.9329,-90.5201,27.9,22.6,11111222
Chevron,ioos:station:wmo:42402:2,2023-02-03T01:29:00Z,26.9329,-90.5201,27.9,22.5,11111222
Chevron,ioos:station:wmo:42402:2,2023-02-03T01:49:00Z,26.9329,-90.5201,27.9,22.5,11111222
Chevron,ioos:station:wmo:42402:2,2023-02-03T02:09:00Z,26.9329,-90.5201,27.9,22.5,11111222
Chevron,ioos:station:wmo:42402:2,2023-02-03T02:29:00Z,26.9329,-90.5201,27.9,22.5,11111222
Chevron,ioos:station:wmo:42402:2,2023-02-03T02:49:00Z,26.9329,-90.5201,27.9,22.5,11111222
Chevron,ioos:station:wmo:42402:2,2023-02-03T03:09:00Z,26.9329,-90.5201,27.9,22.5,11111222
Chevron,ioos:station:wmo:42402:2,2023-02-03T03:29:00Z,26.9329,-90.5201,27.9,22.5,11111222
Chevron,ioos:station:wmo:42402:2,2023-02-03T03:49:00Z,26.9329,-90.5201,27.9,22.5,11111222
Chevron,ioos:station:wmo:42402:2,2023-02-03T04:09:00Z,26.9329,-90.5201,27.9,22.5,11111222
Chevron,ioos:station:wmo:42402:2,2023-02-03T04:29:00Z,26.9329,-90.5201,27.9,22.5,11111222
Chevron,ioos:station:wmo:42402:2,2023-02-03T04:49:00Z,26.9329,-90.5201,27.9,22.5,11111222
Chevron,ioos:station:wmo:42402:2,2023-02-03T05:08:00Z,26.9329,-90.5201,27.9,22.5,11111222
Chevron,ioos:station:wmo:42402:2,2023-02-03T05:28:00Z,26.9329,-90.5201,27.9,22.5,11111222
Chevron,ioos:station:wmo:42402:2,2023-02-03T05:48:00Z,26.9329,-90.5201,27.9,22.5,11111222
Chevron,ioos:station:wmo:42402:2,2023-02-03T06:08:00Z,26.9329,-90.5201,27.9,22.5,11111222
Chevron,ioos:station:wmo:42402:2,2023-02-03T06:28:00Z,26.9329,-90.5201,27.9,22.5,11111222
Chevron,ioos:station:wmo:42402:2,2023-02-03T06:48:00Z,26.9329,-90.5201,27.9,22.4,11111222
Chevron,ioos:station:wmo:42402:2,2023-02-03T07:08:00Z,26.9329,-90.5201,27.9,22.5,11111222
Chevron,ioos:station:wmo:42402:2,2023-02-03T07:28:00Z,26.9329,-90.5201,27.9,22.5,11111222
Chevron,ioos:station:wmo:42402:2,2023-02-03T07:48:00Z,26.9329,-90.5201,27.9,22.5,11111222
Chevron,ioos:station:wmo:42402:2,2023-02-03T08:08:00Z,26.9329,-90.5201,27.9,22.5,11111222
Chevron,ioos:station:wmo:42402:2,2023-02-03T08:28:00Z,26.9329,-90.5201,27.9,22.5,11111222
Chevron,ioos:station:wmo:42402:2,2023-02-03T08:48:00Z,26.9329,-90.5201,27.9,22.5,11111222
Chevron,ioos:station:wmo:42402:2,2023-02-03T09:08:00Z,26.9329,-90.5201,27.9,22.4,11111222
Chevron,ioos:station:wmo:42402:2,2023-02-03T09:28:00Z,26.9329,-90.5201,27.9,22.5,11111222
Chevron,ioos:station:wmo:42402:2,2023-02-03T09:48:00Z,26.9329,-90.5201,27.9,22.5,11111222
Chevron,ioos:station:wmo:42402:2,2023-02-03T10:08:00Z,26.9329,-90.5201,27.9,22.5,11111222
Chevron,ioos:station:wmo:42402:2,2023-02-03T10:28:00Z,26.9329,-90.5201,27.9,22.4,11111222
Chevron,ioos:station:wmo:42402:2,2023-02-03T10:48:00Z,26.9329,-90.5201,27.9,22.3,11111222
Chevron,ioos:station:wmo:42402:2,2023-02-03T11:08:00Z,26.9329,-90.5201,27.9,22.2,11111222
Chevron,ioos:station:wmo:42402:2,2023-02-03T11:28:00Z,26.9329,-90.5201,27.9,22.2,11111222
Chevron,ioos:station:wmo:42402:2,2023-02-03T11:48:00Z,26.9329,-90.5201,27.9,22.3,11111222
Chevron,ioos:station:wmo:42402:2,2023-02-03T12:08:00Z,26.9329,-90.5201,27.9,22.3,11111222
Chevron,ioos:station:wmo:42402:2,2023-02-03T12:28:00Z,26.9329,-90.5201,27.9,22.3,11111222
Chevron,ioos:station:wmo:42402:2,2023-02-03T12:48:00Z,26.9329,-90.5201,27.9,22.3,11111222
Chevron,ioos:station:wmo:42402:2,2023-02-03T13:08:00Z,26.9329,-90.5201,27.9,22.2,11111222
Chevron,ioos:station:wmo:42402:2,2023-02-03T13:28:00Z,26.9329,-90.5201,27.9,22.2,11111222
Chevron,ioos:station:wmo:42402:2,2023-02-03T13:48:00Z,26.9329,-90.5201,27.9,22.3,11111222
Chevron,ioos:station:wmo:42402:2,2023-02-03T14:08:00Z,26.9329,-90.5201,27.9,22.4,11111222
Chevron,ioos:station:wmo:42402:2,2023-02-03T14:28:00Z,26.9329,-90.5201,27.9,22.5,11111222
Chevron,ioos:station:wmo:42402:2,2023-02-03T14:48:00Z,26.9329,-90.5201,27.9,22.5,11111222
Chevron,ioos:station:wmo:42402:2,2023-02-03T15:08:00Z,26.9329,-90.5201,27.9,22.5,11111222
Chevron,ioos:station:wmo:42402:2,2023-02-03T15:28:00Z,26.9329,-90.5201,27.9,22.5,11111222
Chevron,ioos:station:wmo:42402:2,2023-02-03T15:47:00Z,26.9329,-90.5201,27.9,22.5,11111222
Chevron,ioos:station:wmo:42402:2,2023-02-03T16:07:00Z,26.9329,-90.5201,27.9,22.5,11111222
Chevron,ioos:station:wmo:42402:2,2023-02-03T16:27:00Z,26.9329,-90.5201,27.9,22.5,11111222
Chevron,ioos:station:wmo:42402:2,2023-02-03T16:47:00Z,26.9329,-90.5201,27.9,22.5,11111222
Chevron,ioos:station:wmo:42402:2,2023-02-03T17:07:00Z,26.9329,-90.5201,27.9,22.5,11111222
Chevron,ioos:station:wmo:42402:2,2023-02-03T17:26:00Z,26.9329,-90.5201,27.9,22.5,11111222
Chevron,ioos:station:wmo:42402:2,2023-02-03T17:46:00Z,26.9329,-90.5201,27.9,22.5,11111222
Chevron,ioos:station:wmo:42402:2,2023-02-03T18:06:00Z,26.9329,-90.5201,27.9,22.5,11111222
Chevron,ioos:station:wmo:42402:2,2023-02-03T18:26:00Z,26.9329,-90.5201,27.9,22.5,11111222
Chevron,ioos:station:wmo:42402:2,2023-02-03T18:46:00Z,26.9329,-90.5201,27.9,22.4,11111222
Chevron,ioos:station:wmo:42402:2,2023-02-03T19:06:00Z,26.9329,-90.5201,27.9,22.4,11111222
Chevron,ioos:station:wmo:42402:2,2023-02-03T19:26:00Z,26.9329,-90.5201,27.9,22.4,11111222
Chevron,ioos:station:wmo:42402:2,2023-02-03T19:46:00Z,26.9329,-90.5201,27.9,22.4,11111222
Chevron,ioos:station:wmo:42402:2,2023-02-03T20:06:00Z,26.9329,-90.5201,27.9,22.4,11111222
Chevron,ioos:station:wmo:42402:2,2023-02-03T20:26:00Z,26.9329,-90.5201,27.9,22.3,11111222
Chevron,ioos:station:wmo:42402:2,2023-02-03T20:46:00Z,26.9329,-90.5201,27.9,22.3,11111222
Chevron,ioos:station:wmo:42402:2,2023-02-03T21:06:00Z,26.9329,-90.5201,27.9,22.3,11111222
Chevron,ioos:station:wmo:42402:2,2023-02-03T21:26:00Z,26.9329,-90.5201,27.9,22.3,11111222
Chevron,ioos:station:wmo:42402:2,2023-02-03T21:46:00Z,26.9329,-90.5201,27.9,22.3,11111222
Chevron,ioos:station:wmo:42402:2,2023-02-03T22:06:00Z,26.9329,-90.5201,27.9,22.3,11111222
Chevron,ioos:station:wmo:42402:2,2023-02-03T22:26:00Z,26.9329,-90.5201,27.9,22.3,11111222
Chevron,ioos:station:wmo:42402:2,2023-02-03T22:46:00Z,26.9329,-90.5201,27.9,22.3,11111222
Chevron,ioos:station:wmo:42402:2,2023-02-03T23:06:00Z,26.9329,-90.5201,27.9,22.3,11111222
Chevron,ioos:station:wmo:42402:2,2023-02-03T23:26:00Z,26.9329,-90.5201,27.9,22.3,11111222
Chevron,ioos:station:wmo:42402:2,2023-02-03T23:46:00Z,26.9329,-90.5201,27.9,22.3,11111222
Chevron,ioos:station:wmo:42402:2,2023-02-04T00:06:00Z,26.9329,-90.5201,27.9,22.3,11111222
Chevron,ioos:station:wmo:42402:2,2023-02-04T00:26:00Z,26.9329,-90.5201,27.9,22.3,11111222
Chevron,ioos:station:wmo:42402:2,2023-02-04T00:46:00Z,26.9329,-90.5201,27.9,22.3,11111222
Chevron,ioos:station:wmo:42402:2,2023-02-04T01:06:00Z,26.9329,-90.5201,27.9,22.3,11111222
Chevron,ioos:station:wmo:42402:2,2023-02-04T01:26:00Z,26.9329,-90.5201,27.9,22.2,11111222
Chevron,ioos:station:wmo:42402:2,2023-02-04T01:46:00Z,26.9329,-90.5201,27.9,22.2,11111222
Chevron,ioos:station:wmo:42402:2,2023-02-04T02:06:00Z,26.9329,-90.5201,27.9,22.1,11111222
Chevron,ioos:station:wmo:42402:2,2023-02-04T02:26:00Z,26.9329,-90.5201,27.9,22.1,11111222
Chevron,ioos:station:wmo:42402:2,2023-02-04T02:46:00Z,26.9329,-90.5201,27.9,22.1,11111222
Chevron,ioos:station:wmo:42402:2,2023-02-04T03:05:00Z,26.9329,-90.5201,27.9,22.1,11111222
Chevron,ioos:station:wmo:42402:2,2023-02-04T03:25:00Z,26.9329,-90.5201,27.9,22.1,11111222
Chevron,ioos:station:wmo:42402:2,2023-02-04T03:44:00Z,26.9329,-90.5201,27.9,22.1,11111222
Chevron,ioos:station:wmo:42402:2,2023-02-04T04:04:00Z,26.9329,-90.5201,27.9,22.0,11111222
Chevron,ioos:station:wmo:42402:2,2023-02-04T04:24:00Z,26.9329,-90.5201,27.9,22.1,11111222
Chevron,ioos:station:wmo:42402:2,2023-02-04T04:44:00Z,26.9329,-90.5201,27.9,22.0,11111222
Chevron,ioos:station:wmo:42402:2,2023-02-04T05:04:00Z,26.9329,-90.5201,27.9,22.0,11111222
Chevron,ioos:station:wmo:42402:2,2023-02-04T05:24:00Z,26.9329,-90.5201,27.9,22.0,11111222
Chevron,ioos:station:wmo:42402:2,2023-02-04T05:44:00Z,26.9329,-90.5201,27.9,22.0,11111222
Chevron,ioos:station:wmo:42402:2,2023-02-04T06:04:00Z,26.9329,-90.5201,27.9,22.0,11111222
Chevron,ioos:station:wmo:42402:2,2023-02-04T06:24:00Z,26.9329,-90.5201,27.9,22.0,11111222
Chevron,ioos:station:wmo:42402:2,2023-02-04T06:44:00Z,26.9329,-90.5201,27.9,22.0,11111222
Chevron,ioos:station:wmo:42402:2,2023-02-04T07:04:00Z,26.9329,-90.5201,27.9,22.1,11111222
Chevron,ioos:station:wmo:42402:2,2023-02-04T07:24:00Z,26.9329,-90.5201,27.9,22.0,11111222
Chevron,ioos:station:wmo:42402:2,2023-02-04T07:44:00Z,26.9329,-90.5201,27.9,22.0,11111222
Chevron,ioos:station:wmo:42402:2,2023-02-04T08:04:00Z,26.9329,-90.5201,27.9,22.0,11111222
Chevron,ioos:station:wmo:42402:2,2023-02-04T08:24:00Z,26.9329,-90.5201,27.9,22.1,11111222
Chevron,ioos:station:wmo:42402:2,2023-02-04T08:44:00Z,26.9329,-90.5201,27.9,22.1,11111222
Chevron,ioos:station:wmo:42402:2,2023-02-04T09:04:00Z,26.9329,-90.5201,27.9,22.1,11111222
Chevron,ioos:station:wmo:42402:2,2023-02-04T09:24:00Z,26.9329,-90.5201,27.9,22.1,11111222
Chevron,ioos:station:wmo:42402:2,2023-02-04T09:44:00Z,26.9329,-90.5201,27.9,22.1,11111222
Chevron,ioos:station:wmo:42402:2,2023-02-04T10:04:00Z,26.9329,-90.5201,27.9,22.1,11111222
Chevron,ioos:station:wmo:42402:2,2023-02-04T10:24:00Z,26.9329,-90.5201,27.9,22.1,11111222
Chevron,ioos:station:wmo:42402:2,2023-02-04T10:44:00Z,26.9329,-90.5201,27.9,22.1,11111222
Chevron,ioos:station:wmo:42402:2,2023-02-04T11:04:00Z,26.9329,-90.5201,27.9,22.1,11111222
Chevron,ioos:station:wmo:42402:2,2023-02-04T11:24:00Z,26.9329,-90.5201,27.9,22.0,11111222
Chevron,ioos:station:wmo:42402:2,2023-02-04T11:44:00Z,26.9329,-90.5201,27.9,22.0,11111222
Chevron,ioos:station:wmo:42402:2,2023-02-04T12:04:00Z,26.9329,-90.5201,27.9,22.0,11111222
Chevron,ioos:station:wmo:42402:2,2023-02-04T12:24:00Z,26.9329,-90.5201,27.9,22.0,11111222
Chevron,ioos:station:wmo:42402:2,2023-02-04T12:44:00Z,26.9329,-90.5201,27.9,22.0,11111222
Chevron,ioos:station:wmo:42402:2,2023-02-04T13:04:00Z,26.9329,-90.5201,27.9,22.0,11111222
Chevron,ioos:station:wmo:42402:2,2023-02-04T13:23:00Z,26.9329,-90.5201,27.9,22.0,11111222
Chevron,ioos:station:wmo:42402:2,2023-02-04T13:42:00Z,26.9329,-90.5201,27.9,22.0,11111222
Chevron,ioos:station:wmo:42402:2,2023-02-04T14:02:00Z,26.9329,-90.5201,27.9,22.0,11111222
Chevron,ioos:station:wmo:42402:2,2023-02-04T14:21:00Z,26.9329,-90.5201,27.9,22.0,11111222
Chevron,ioos:station:wmo:42402:2,2023-02-04T14:40:00Z,26.9329,-90.5201,27.9,22.0,11111222